Torna al catalogo

STARLINK-31795

AttivoComunicazioniVLEO
NORAD 59645·PAYLOAD·🇺🇸 United States

Lanciato May 3, 2024 da Cape Canaveral Space Force Station

Loading…

Prossimi Passaggi (prossime 24 ore)

TLE

AggiornatoSource: CelesTrak SupGP

Epoca: Sep 14, 2026, 20:41 UTC

1 59645C 24082Q   26257.86229167 -.00009047  00000+0 -32779-3 0  2577
2 59645  43.0026  92.8955 0001405 271.0218  18.2466 15.27571571    14

Traccia STARLINK-31795 in tempo reale con AllMySat

Download on the App Store